FLOCK 4A-12 (44108 NORAD) Tracking and Keplerian Element Data

This shows tracking and keplerian element data for the satellite.

Feedback or suggestion? Click here.




ElementValue
Catalog44108
NameFLOCK 4A-12
Epoch Orbit300
Epoch Day111.7415858
Epoch Year2019
RAAN172.1371
Inclination97.4596
Eccentricity0.0010506
Argument of Perigee215.4207
Mean Anonmoly261.4796
Mean Motion15.21945632
Decay Rate8.79E-06
L11 44108U 19018AE 19111.74158580 .00000879 00000-0 41625-4 0 9993
L22 44108 97.4596 172.1371 0010506 215.4207 261.4796 15.21945632 3000

Live tracking and technical data element details for FLOCK 4A-12 (NORAD 44108). FLOCK 4A-12 can be tracked NOW for your location showing map with azimuth and elevation plus other details from your city location.

Track the satellite on the map from your city or location and see movement details for azimuth, elevation, latitude, longitude, range, height, and movement on the map or in text.







IsCatalogInMostPopularTable: catalog: 44108, numindb: 6
Update: records affected: 1



GetName: 44108 FLOCK 4A-12

Hit Count: updated at: Tue, 23 Apr 2019 02:24:16 GMT